This is the latest recevied weather packets stored in our database for station/object JS1SZZ-13. If no packets are shown the sender has not sent any weather packets the latest 10 day(s).
| Time | Temp. | Humidity | Pressure | Rain* | Wind** | Luminosity | Snow |
|---|---|---|---|---|---|---|---|
| 1787757159 | 22.78° C | 93% | 1010.8 hPa | 0 mm | - | - | - |
| 1787756258 | 22.78° C | 93% | 1010.9 hPa | 0 mm | - | - | - |
| 1787755360 | 22.78° C | 92% | 1010.4 hPa | 0 mm | - | - | - |
| 1787754459 | 22.78° C | 92% | 1010.5 hPa | 0 mm | - | - | - |
| 1787753558 | 22.78° C | 93% | 1010.4 hPa | 0 mm | - | - | - |
| 1787752660 | 22.78° C | 93% | 1010.3 hPa | 0 mm | - | - | - |
| 1787751759 | 22.78° C | 92% | 1010.2 hPa | 0 mm | - | - | - |
| 1787750859 | 22.78° C | 92% | 1010 hPa | 0 mm | - | - | - |
| 1787749958 | 23.33° C | 93% | 1010.1 hPa | 0 mm | - | - | - |
| 1787749060 | 23.33° C | 92% | 1009.8 hPa | 0 mm | - | - | - |
| 1787748159 | 22.78° C | 92% | 1009.7 hPa | 0.25 mm | - | - | - |
| 1787747259 | 23.33° C | 92% | 1010.1 hPa | 0.25 mm | - | - | - |
| 1787746359 | 23.33° C | 91% | 1010.2 hPa | 0.25 mm | - | - | - |
| 1787745460 | 23.89° C | 91% | 1010.4 hPa | 0.25 mm | - | - | - |
| 1787744559 | 23.89° C | 91% | 1010.8 hPa | 0 mm | - | - | - |
| 1787743659 | 23.89° C | 91% | 1010.8 hPa | 0.25 mm | - | - | - |
| 1787742758 | 23.89° C | 90% | 1010.4 hPa | 1.02 mm | - | - | - |
| 1787741859 | 24.44° C | 90% | 1010 hPa | 1.02 mm | - | - | - |
| 1787740958 | 24.44° C | 88% | 1010.1 hPa | 1.02 mm | - | - | - |
| 1787740060 | 25° C | 87% | 1009.6 hPa | 0.76 mm | - | - | - |
| 1787739159 | 25.56° C | 83% | 1009.3 hPa | 0 mm | - | - | - |
| 1787738258 | 26.11° C | 81% | 1009.7 hPa | 0 mm | - | - | - |
| 1787737358 | 26.11° C | 79% | 1009 hPa | 0 mm | - | - | - |
| 1787736459 | 26.67° C | 78% | 1008.9 hPa | 0 mm | - | - | - |
| 1787735559 | 27.22° C | 77% | 1008.7 hPa | 0 mm | - | - | - |
* Rain latest hour (hover to see other rain measurements)
** Current wind speed in m/s (hover to see current wind gust speed)